Temperature
8 9 9 9 10 10 10 10 10 10 10 10 10 10 10 10 10 10 10 10 10 10 10 10 10 9 9 9 9 9 9 9 8 8 8 8 8 7 7 7 6 6 6
8 8 8 9 9 9 10 10 10 10 10 10 10 10 10 10 10 10 10 10 10 10 10 10 10 9 9 9 9 9 9 9 8 8 8 8 7 7 7 6 6 5 5
7 8 8 8 9 9 9 10 10 10 10 10 10 10 10 10 10 10 10 10 10 10 10 10 10 9 9 9 9 9 9 9 8 8 8 7 7 7 6 6 6 5 5
7 7 8 8 8 9 9 9 10 10 10 10 10 10 10 10 10 10 10 10 10 10 10 10 10 10 9 9 9 9 9 8 8 8 7 7 7 6 6 5 5 5 5
7 7 7 8 8 9 9 9 10 10 10 10 10 10 10 10 10 10 10 10 10 10 10 10 10 9 9 9 9 9 8 8 8 7 7 6 6 6 5 5 5 5 4
7 7 7 8 8 8 9 9 9 10 10 10 10 10 10 10 10 10 10 10 10 10 10 10 9 9 9 9 8 8 8 8 8 7 7 6 6 5 5 5 4 4 3
6 7 7 7 8 8 8 9 9 9 9 10 10 10 10 10 10 10 10 10 10 10 10 10 9 9 9 8 8 8 8 7 7 7 7 6 6 5 5 4 4 3 3
6 6 7 7 7 8 8 8 9 9 9 9 9 10 10 10 10 10 10 10 10 10 10 10 9 9 9 8 8 8 7 7 7 6 6 6 5 5 4 4 3 3 2
5 6 6 7 7 7 8 8 8 9 9 9 9 9 10 10 10 10 10 9 9 9 9 9 9 9 9 8 8 8 7 7 6 6 5 5 5 4 4 3 2 2 2
5 5 6 6 7 7 7 8 8 8 9 9 9 9 9 10 10 10 9 9 9 9 9 9 9 8 8 8 8 7 7 7 6 6 5 5 4 4 3 3 2 2 1
4 5 5 6 6 7 7 7 8 8 8 8 9 9 9 9 9 9 9 9 9 9 9 9 8 8 8 8 7 7 7 6 6 5 5 4 4 3 3 2 2 1 0
4 5 5 5 6 6 6 7 7 8 8 8 8 8 9 9 9 9 9 9 9 9 9 9 8 8 8 7 7 7 6 6 5 5 4 4 3 3 2 2 1 1 -0
3 4 5 5 5 6 6 7 7 7 7 8 8 8 8 8 9 9 9 9 9 9 9 8 8 8 7 7 7 6 6 5 5 5 4 3 3 2 2 1 1 0 -0
3 3 4 5 5 6 6 6 6 7 7 7 8 8 8 8 8 8 8 8 8 8 8 7 7 7 7 6 6 6 5 5 4 4 4 3 2 2 1 1 0 -0 -0
2 3 3 4 5 5 6 6 6 7 7 7 8 8 8 8 8 8 8 8 8 8 8 7 7 7 6 6 6 5 5 4 4 4 3 2 2 1 1 0 -0 -0 -1
2 2 3 3 4 5 5 5 6 6 7 7 8 8 8 8 8 8 8 8 8 8 7 7 7 6 6 6 6 5 4 4 4 3 2 2 1 1 0 -0 -0 -1 -1
1 2 2 3 4 4 4 5 5 6 6 6 7 7 8 8 8 7 7 7 7 7 7 7 7 6 6 6 5 5 4 4 3 3 2 1 1 1 0 -0 -1 -1 -2
1 1 2 2 3 4 4 4 5 5 6 6 6 7 7 7 7 7 7 7 6 6 7 7 6 6 6 5 5 5 4 3 3 2 2 1 1 0 -0 -1 -1 -2 -2
1 1 2 2 3 3 4 4 4 5 5 5 5 6 6 6 6 6 6 7 7 6 6 6 6 6 5 5 5 4 4 3 2 2 2 1 0 -0 -1 -1 -1 -2 -2
0 1 1 2 2 3 3 4 4 4 4 5 5 5 6 6 6 6 6 6 6 6 6 6 6 5 5 5 5 4 3 3 2 2 1 1 0 -0 -1 -1 -2 -2 -3
0 1 1 2 2 2 3 3 4 4 4 4 5 5 6 6 6 5 5 6 6 6 6 6 5 5 5 5 4 4 3 2 2 1 1 0 -0 -0 -1 -1 -2 -2 -3
0 0 1 1 2 2 3 3 3 4 4 4 4 5 5 5 6 5 5 6 6 6 6 5 5 5 5 4 4 3 3 2 2 1 1 0 -0 -1 -1 -2 -2 -2 -3
-0 0 1 1 2 2 2 3 3 3 4 4 4 4 5 5 5 5 5 5 5 5 5 5 5 4 4 4 3 3 3 2 2 1 1 0 -0 -1 -1 -2 -2 -2 -3
-1 -0 0 1 1 2 2 3 3 3 4 4 4 4 4 5 5 5 5 5 5 5 5 4 4 4 4 3 3 2 2 2 1 1 0 -0 -1 -1 -2 -2 -2 -3 -3
-1 -0 0 1 1 2 2 2 3 3 3 4 4 4 4 4 4 4 5 4 4 4 4 4 4 3 3 3 2 2 2 1 1 0 -0 -1 -1 -1 -2 -2 -3 -3 -3
-1 -0 0 1 1 2 2 2 2 3 3 3 3 4 4 4 4 4 4 4 4 4 4 3 3 3 3 2 2 2 1 1 0 -0 -1 -1 -1 -2 -2 -2 -3 -3 -3
Wind_Speed
6 7 7 9 9 9 9 12 12 12 14 15 16 17 16 16 15 14 14 14 14 12 11 11 10 8 7 6 5 4 4 4 4 2 1 2 2 2 1 2 3 4 5
5 5 7 7 8 9 9 11 12 13 13 14 15 16 16 16 15 16 16 16 16 15 14 12 11 9 9 7 6 6 5 4 4 4 1 1 1 2 1 1 2 3 4
4 5 6 6 7 9 10 10 12 12 12 13 15 16 16 16 15 15 15 15 15 15 15 14 13 12 10 7 7 6 5 4 3 3 2 1 1 1 0 1 1 2 4
4 6 6 6 7 7 8 9 11 12 12 13 14 15 15 15 15 15 14 14 13 13 13 13 13 13 12 11 9 8 6 5 4 3 2 1 1 1 1 0 2 2 3
4 5 6 6 5 5 6 8 10 11 12 12 13 13 13 13 14 14 13 13 13 12 12 12 12 13 14 12 9 9 8 6 5 4 3 2 1 1 1 1 1 2 3
4 5 4 4 5 5 6 7 9 10 11 12 12 13 14 12 15 18 16 13 13 13 12 11 11 12 13 14 13 12 11 9 7 5 4 3 3 2 2 1 0 1 2
5 5 4 4 4 5 5 6 8 9 10 11 12 13 13 14 17 19 18 14 13 12 12 12 10 10 12 10 11 11 9 9 9 7 5 5 4 3 3 1 1 1 2
6 5 4 4 5 5 5 6 7 7 9 10 11 11 11 12 18 18 18 13 11 12 12 13 12 12 12 12 10 8 6 5 6 5 5 4 4 3 4 3 2 0 1
6 6 4 4 5 5 6 6 6 7 7 9 10 11 11 12 18 19 17 11 10 11 11 12 13 13 16 17 12 10 8 5 7 10 9 8 7 6 4 3 2 2 1
6 6 5 5 5 5 6 6 5 6 6 7 9 9 11 11 16 19 18 11 10 10 9 10 15 15 19 19 13 12 11 8 7 7 6 6 5 5 5 4 3 2 0
6 6 5 4 5 5 5 4 5 6 7 6 8 8 10 11 16 20 19 12 11 11 10 9 10 18 19 19 15 11 12 11 8 7 5 4 3 3 3 3 3 2 2
5 5 5 5 4 4 5 5 5 7 8 7 7 7 7 9 13 17 19 15 13 11 10 9 10 19 19 17 13 14 16 13 8 7 5 4 3 2 2 2 2 2 1
6 6 5 5 5 5 6 6 6 7 7 7 7 7 6 6 8 15 18 17 15 10 9 14 16 19 17 13 16 17 14 9 7 6 6 4 3 3 2 2 2 3 3
6 6 5 5 5 5 5 6 6 7 8 7 7 7 7 6 7 9 10 11 12 11 11 15 18 17 13 13 13 10 7 7 7 6 6 4 4 3 2 1 1 1 2
7 6 5 5 4 4 4 5 6 7 8 9 9 8 9 9 9 12 12 10 11 12 13 10 9 10 9 8 7 7 7 7 6 5 6 5 4 3 2 2 1 1 1
6 5 5 4 4 4 4 2 3 5 8 9 10 10 8 9 14 14 14 16 19 22 15 11 10 9 10 10 9 8 6 7 6 6 6 5 5 4 3 2 2 1 1
7 6 5 4 4 4 5 5 3 2 5 8 10 11 12 14 17 17 16 18 21 20 11 10 10 10 9 9 9 8 7 6 6 7 6 6 5 4 3 2 2 1 1
7 7 6 4 4 4 5 5 5 6 5 4 6 11 14 15 18 19 20 16 12 10 9 10 10 9 9 9 9 8 8 7 7 6 6 6 5 5 4 3 2 1 1
7 5 4 4 4 4 5 5 5 6 6 5 5 6 11 15 17 19 18 10 11 10 9 9 9 9 9 9 9 9 9 8 8 7 6 6 5 5 4 3 2 1 2
6 7 5 4 4 4 5 5 6 6 6 6 7 7 8 9 9 10 8 8 9 9 9 9 9 9 9 10 9 9 9 8 8 7 6 6 5 5 4 4 3 2 0
5 5 6 5 5 5 5 6 6 7 7 6 6 8 12 10 9 9 8 8 8 9 10 9 9 9 9 9 9 10 10 8 8 7 7 6 6 5 4 3 2 2 1
4 4 4 4 4 4 5 6 7 7 8 8 7 8 12 9 8 8 7 7 7 7 8 9 9 9 9 10 11 11 10 9 8 8 7 6 6 5 5 4 3 2 1
4 5 4 4 4 6 6 6 7 8 8 8 8 8 8 8 8 8 8 7 7 8 8 8 9 8 8 9 10 10 10 10 9 9 9 7 6 6 5 4 4 3 1
5 5 5 4 4 5 6 7 7 8 8 8 9 8 8 8 8 9 8 8 8 8 8 8 9 12 13 11 10 11 11 13 13 11 11 9 8 6 5 4 3 3 2
5 5 5 5 5 6 6 6 7 8 8 8 9 9 9 9 9 9 8 9 9 9 9 9 9 11 14 14 13 14 17 18 16 14 12 9 8 7 6 5 4 3 2
5 5 5 5 5 6 6 7 7 8 8 9 9 9 10 10 9 9 9 9 10 9 9 9 11 14 15 15 17 20 20 19 18 17 13 10 8 7 6 5 4 3 3
Wind_Direction
244 229 225 214 202 203 210 195 187 185 185 183 185 185 186 187 185 184 185 183 184 184 183 183 184 177 174 173 165 164 169 161 192 230 156 130 144 171 183 216 243 252 265
256 245 238 220 202 204 208 200 189 187 187 186 184 184 185 187 186 188 187 184 184 185 184 183 184 179 175 172 170 174 177 171 173 202 212 150 166 178 176 235 256 267 270
263 254 237 228 215 207 203 203 192 187 188 188 184 185 185 186 187 189 188 186 187 186 184 185 183 178 181 176 172 175 176 171 167 175 199 181 140 130 100 301 294 296 293
261 250 235 231 227 213 205 205 194 188 190 192 189 186 185 183 185 187 186 184 185 184 183 183 183 183 182 177 177 177 170 168 167 169 189 189 169 107 107 288 309 307 310
260 253 243 232 233 221 215 207 193 188 190 189 189 185 184 183 185 183 181 181 181 181 180 181 181 179 178 176 176 174 170 170 169 174 185 178 182 161 202 205 274 307 304
257 256 250 236 229 227 219 209 192 187 188 185 189 189 185 187 180 178 179 180 180 179 179 176 174 173 174 172 169 169 170 175 181 180 186 191 206 190 167 148 183 343 298
270 258 242 235 229 228 221 208 194 189 187 188 188 189 188 182 173 177 176 178 179 179 177 175 173 173 167 166 161 159 167 173 175 175 180 192 180 179 158 168 212 241 252
279 266 248 231 231 229 215 214 197 189 190 190 188 184 183 179 171 173 172 175 175 176 178 176 171 168 168 161 156 154 151 149 154 152 157 155 146 147 162 175 188 312 332
281 273 256 237 228 221 213 213 200 189 191 190 183 182 181 179 174 171 168 177 176 176 174 172 169 169 166 159 158 154 144 135 120 122 121 121 125 124 121 110 92 64 330
279 275 260 248 230 224 216 209 198 190 188 187 184 183 181 180 176 173 171 176 176 175 168 170 171 169 165 163 165 162 162 159 142 130 117 106 101 102 102 115 143 128 79
285 280 263 252 237 225 218 202 191 183 178 182 181 182 180 178 177 176 175 180 177 172 172 172 173 165 164 166 164 167 166 154 146 140 134 124 108 99 90 88 105 138 161
287 282 270 254 237 217 204 195 189 179 175 177 176 176 176 172 174 180 180 178 170 170 171 166 163 160 160 159 157 153 147 141 139 140 142 146 145 133 104 94 91 88 138
289 277 269 258 233 215 203 191 189 183 177 178 175 175 172 165 170 174 177 172 164 161 158 154 151 150 148 150 148 146 144 143 145 148 154 158 148 140 120 89 59 54 29
285 278 270 256 238 215 207 195 190 186 180 178 175 174 168 164 165 168 172 167 154 145 140 140 139 139 140 142 145 146 146 150 151 151 147 139 129 125 117 104 69 36 25
282 277 274 255 227 212 210 208 203 198 189 182 183 178 174 178 178 170 166 165 159 148 139 135 139 143 147 147 143 141 143 146 144 139 139 137 134 130 113 96 82 53 49
277 272 269 252 223 205 193 201 215 195 179 180 181 178 178 167 160 159 158 153 147 144 140 149 153 155 157 157 154 150 150 152 149 144 144 144 146 144 130 97 68 66 47
269 266 260 244 222 203 188 179 173 124 146 160 165 167 163 158 158 158 153 148 149 146 146 154 157 159 159 157 155 153 154 151 146 144 145 147 146 144 137 127 101 65 39
263 258 247 231 220 212 193 181 179 170 164 160 158 157 153 155 157 154 148 143 150 151 154 156 158 158 158 156 154 150 147 144 143 145 145 147 148 144 140 141 139 114 56
257 250 235 221 214 213 194 180 177 171 164 157 145 146 148 149 151 151 151 155 159 159 154 152 152 152 153 151 150 149 149 148 147 148 148 148 148 142 141 141 139 99 65
253 236 227 219 209 205 191 180 176 169 165 163 159 155 149 145 150 156 157 154 153 153 153 151 150 148 149 148 147 146 145 146 148 147 147 146 145 144 144 143 144 138 118
239 224 219 219 211 201 190 181 172 167 169 166 163 164 159 155 156 156 157 154 153 153 151 148 146 148 148 147 146 146 146 148 151 149 147 146 145 141 138 136 132 125 111
227 218 214 211 208 199 189 179 169 167 166 162 158 152 148 145 147 150 149 147 143 142 143 144 147 151 153 153 151 149 150 150 151 148 146 144 142 138 134 132 128 124 117
219 214 213 208 200 195 193 175 168 166 163 161 156 149 147 145 144 144 141 137 136 134 134 138 142 143 139 138 144 150 154 157 155 151 147 144 140 139 137 132 131 131 126
213 208 205 200 194 188 176 168 166 163 157 155 151 148 147 143 140 138 137 133 131 130 131 135 142 143 138 136 135 136 137 139 139 142 141 141 139 137 135 133 133 136 134
210 205 199 194 190 178 166 164 161 157 153 151 148 145 141 139 137 137 135 133 131 131 131 131 133 135 136 136 136 136 138 137 136 135 132 132 134 134 135 136 134 127 110
206 199 193 188 177 167 161 160 159 156 152 148 146 145 142 140 138 137 136 135 133 133 131 130 132 133 133 133 135 137 137 137 136 134 130 128 132 134 134 131 127 122 116
Height
1371 1373 1375 1377 1379 1383 1387 1391 1396 1401 1405 1410 1416 1421 1427 1432 1436 1441 1446 1452 1457 1462 1466 1470 1474 1479 1482 1485 1487 1490 1492 1493 1494 1495 1495 1495 1495 1495 1494 1493 1491 1490 1488
1366 1368 1370 1372 1375 1378 1382 1386 1391 1396 1400 1405 1411 1415 1421 1426 1431 1435 1440 1446 1450 1455 1460 1464 1469 1473 1476 1480 1482 1485 1487 1489 1490 1490 1491 1491 1491 1491 1490 1489 1487 1486 1484
1363 1364 1366 1368 1371 1373 1377 1381 1386 1391 1395 1400 1405 1410 1415 1420 1425 1430 1435 1440 1445 1449 1454 1458 1463 1467 1471 1474 1477 1480 1482 1484 1485 1486 1487 1487 1487 1487 1486 1485 1483 1482 1480
1360 1361 1362 1364 1366 1368 1372 1376 1381 1385 1390 1395 1400 1405 1410 1415 1419 1425 1430 1434 1439 1444 1449 1453 1457 1461 1465 1469 1472 1475 1477 1479 1481 1482 1482 1483 1483 1482 1481 1480 1479 1478 1476
1357 1357 1357 1360 1362 1364 1368 1371 1375 1380 1385 1390 1395 1400 1405 1409 1414 1419 1424 1429 1434 1439 1443 1448 1452 1456 1460 1464 1467 1470 1472 1474 1476 1477 1478 1478 1478 1478 1477 1476 1475 1473 1472
1354 1354 1355 1356 1358 1361 1364 1366 1370 1375 1380 1385 1390 1395 1399 1404 1409 1414 1419 1424 1429 1433 1438 1442 1447 1451 1456 1459 1462 1465 1468 1470 1471 1472 1473 1473 1473 1474 1473 1472 1471 1469 1467
1351 1351 1352 1353 1355 1357 1359 1362 1366 1370 1375 1380 1385 1389 1394 1398 1404 1410 1414 1419 1423 1427 1432 1437 1441 1446 1450 1454 1458 1461 1463 1465 1467 1468 1469 1469 1470 1470 1470 1469 1467 1466 1464
1347 1348 1349 1350 1352 1354 1356 1359 1362 1366 1370 1375 1379 1384 1388 1393 1399 1404 1409 1414 1418 1423 1427 1432 1436 1441 1445 1449 1453 1456 1458 1460 1462 1464 1465 1466 1466 1467 1466 1466 1465 1463 1462
1343 1344 1345 1347 1348 1350 1352 1355 1358 1362 1366 1370 1374 1379 1383 1388 1393 1399 1404 1409 1413 1418 1423 1427 1431 1436 1440 1445 1449 1451 1454 1456 1458 1460 1461 1462 1463 1463 1462 1462 1461 1459 1457
1340 1341 1342 1343 1344 1346 1348 1351 1354 1358 1362 1366 1370 1375 1379 1383 1388 1393 1399 1403 1408 1413 1418 1422 1427 1431 1436 1440 1443 1446 1449 1452 1454 1456 1457 1458 1459 1459 1459 1458 1457 1456 1454
1337 1337 1338 1339 1340 1342 1344 1347 1350 1354 1358 1362 1366 1370 1374 1378 1383 1388 1393 1398 1403 1408 1412 1417 1422 1427 1431 1435 1439 1442 1445 1448 1450 1452 1453 1454 1455 1455 1455 1455 1454 1454 1452
1333 1333 1333 1335 1336 1338 1340 1343 1346 1350 1354 1358 1362 1366 1370 1374 1378 1383 1388 1393 1398 1403 1408 1413 1418 1423 1427 1431 1435 1438 1441 1444 1446 1448 1449 1450 1451 1452 1452 1452 1452 1451 1450
1328 1328 1329 1331 1332 1334 1336 1339 1342 1345 1349 1353 1357 1361 1365 1369 1374 1379 1384 1389 1394 1399 1404 1409 1414 1419 1423 1427 1431 1434 1437 1440 1442 1444 1445 1447 1448 1449 1450 1450 1449 1449 1448
1324 1324 1325 1326 1327 1329 1332 1334 1337 1340 1344 1348 1352 1356 1360 1365 1369 1374 1379 1384 1390 1395 1400 1406 1410 1415 1419 1423 1427 1430 1433 1436 1438 1440 1442 1444 1445 1446 1446 1447 1446 1446 1445
1320 1320 1320 1321 1323 1325 1327 1330 1333 1336 1339 1343 1347 1351 1355 1359 1364 1370 1374 1379 1384 1390 1395 1401 1405 1410 1414 1418 1422 1426 1429 1432 1435 1437 1439 1441 1442 1443 1444 1444 1444 1443 1442
1315 1315 1316 1317 1319 1321 1323 1327 1330 1333 1337 1341 1345 1348 1351 1356 1361 1367 1372 1377 1382 1387 1392 1396 1400 1405 1410 1414 1418 1422 1425 1428 1431 1434 1436 1438 1439 1440 1441 1441 1441 1441 1440
1311 1312 1313 1314 1316 1318 1320 1323 1325 1329 1333 1337 1340 1344 1348 1353 1358 1363 1369 1374 1378 1383 1388 1392 1396 1401 1406 1410 1414 1418 1422 1425 1428 1431 1433 1435 1436 1438 1438 1439 1439 1439 1438
1307 1308 1309 1310 1312 1314 1316 1319 1322 1325 1329 1332 1337 1341 1345 1350 1355 1360 1365 1370 1375 1379 1383 1388 1393 1398 1403 1407 1411 1415 1419 1422 1425 1428 1430 1432 1434 1435 1436 1437 1437 1437 1436
1302 1303 1304 1306 1308 1310 1313 1316 1318 1322 1325 1329 1333 1338 1343 1347 1352 1356 1361 1366 1370 1375 1380 1385 1390 1395 1399 1404 1408 1412 1416 1419 1422 1425 1427 1429 1431 1433 1434 1435 1435 1435 1435
1297 1298 1300 1301 1303 1306 1309 1311 1315 1318 1321 1325 1329 1334 1339 1344 1348 1353 1358 1363 1367 1372 1377 1382 1387 1392 1397 1401 1405 1409 1413 1417 1420 1422 1425 1427 1429 1430 1432 1433 1433 1433 1433
1291 1293 1295 1297 1299 1302 1304 1307 1311 1315 1318 1322 1326 1331 1336 1341 1345 1350 1355 1360 1365 1370 1375 1380 1385 1390 1394 1399 1403 1407 1410 1414 1417 1420 1422 1425 1427 1429 1430 1431 1432 1432 1432
1286 1288 1290 1292 1295 1298 1301 1304 1308 1311 1315 1319 1323 1329 1334 1339 1344 1349 1354 1358 1363 1368 1374 1379 1383 1388 1392 1397 1401 1404 1408 1411 1414 1417 1420 1423 1425 1427 1428 1429 1430 1431 1431
1281 1283 1285 1288 1291 1294 1297 1301 1304 1308 1312 1317 1321 1326 1332 1337 1342 1347 1352 1357 1362 1367 1372 1377 1382 1386 1391 1396 1400 1403 1406 1409 1413 1416 1418 1421 1423 1425 1427 1428 1429 1429 1429
1277 1279 1281 1284 1287 1290 1293 1297 1301 1305 1309 1314 1319 1324 1330 1335 1340 1345 1351 1356 1361 1366 1371 1376 1381 1385 1389 1394 1398 1402 1405 1409 1412 1415 1418 1420 1422 1424 1425 1427 1428 1428 1428
1272 1274 1277 1280 1283 1287 1290 1294 1298 1303 1307 1312 1317 1323 1328 1333 1339 1344 1350 1355 1360 1365 1370 1375 1380 1384 1389 1393 1397 1400 1404 1408 1411 1414 1416 1419 1421 1423 1424 1426 1426 1427 1428
1268 1270 1273 1276 1280 1283 1287 1291 1296 1301 1305 1310 1316 1321 1326 1332 1337 1343 1348 1354 1358 1364 1369 1374 1379 1383 1388 1392 1396 1400 1403 1407 1410 1413 1416 1418 1420 1422 1423 1425 1426 1427 1427